Weather History for MMAA - November, 2012

Change the Weather History Date:

Saturday, November 3, 2012

  Actual Average Record
Temperature  
Mean Temperature 82 °F -  
Max Temperature 90 °F 90 °F 93 °F (2013)
Min Temperature 73 °F 74 °F 73 °F (1999)
Cooling Degree Days 16    
Growing Degree Days 32 (Base 50)    
Moisture  
Dew Point 75 °F    
Average Humidity 81    
Maximum Humidity 94    
Minimum Humidity 56    
Precipitation  
Precipitation 0.00 in 0.06 in - ()
Sea Level Pressure  
Sea Level Pressure 29.90 in    
Wind  
Wind Speed 1 mph ()    
Max Wind Speed 7 mph    
Max Gust Speed -    
Visibility 8.1 miles    
Events      
Averages and records for this station are not official NWS values.
T = Trace of Precipitation, MM = Missing Value Source: Averaged Metar Reports

Daily Weather History Graph

Daily Weather History Graph

Search for Another Location

Airport or City:

Trip Planner

Search our weather history database for the weather conditions in past years. The results will help you decide how hot, cold, wet, or windy it might be!

Date:

Astronomy

Nov. 03, 2012 Rise Set
Actual Time 6:37 AM CST 6:07 PM CST
Civil Twilight 6:15 AM CST 6:29 PM CST
Nautical Twilight 5:49 AM CST 6:55 PM CST
Astronomical Twilight 5:24 AM CST 7:20 PM CST
Moon 10:02 PM CST (11/3) 10:28 AM CST (11/3)
Length of Visible Light 12h 14m
Length of Day
11h 29m
Waning Gibbous, 80% of the Moon is Illuminated
Nov 3
Waning Gibbous
Nov 6
Last Quarter
Nov 13
New
Nov 20
First Quarter
Nov 28
Full

Hourly Weather History & Observations

Time (CST) Temp. Heat Index Dew Point Humidity Pressure Visibility Wind Dir Wind Speed Gust Speed Precip Events Conditions
12:43 AM 78.8 °F - 75.2 °F 89% 29.91 in 7.0 mi Calm Calm - N/A   Overcast
1:56 AM 77.0 °F - 75.2 °F 94% 29.91 in 7.0 mi Calm Calm - N/A   Overcast
2:56 AM 77.0 °F - 75.2 °F 94% 29.88 in 7.0 mi Calm Calm - N/A   Overcast
3:42 AM 77.0 °F - 75.2 °F 94% 29.88 in 7.0 mi Calm Calm - N/A   Overcast
4:44 AM 77.0 °F - 75.2 °F 94% 29.88 in 7.0 mi Calm Calm - N/A   Overcast
4:47 AM 77.0 °F - 75.2 °F 94% 29.88 in 7.0 mi Calm Calm - N/A   Overcast
5:45 AM 77.0 °F - 75.2 °F 94% 29.89 in 7.0 mi Calm Calm - N/A   Overcast
6:42 AM 77.0 °F - 75.2 °F 94% 29.91 in 8.0 mi Calm Calm - N/A   Overcast
7:43 AM 77.0 °F - 73.4 °F 89% 29.93 in 7.0 mi Calm Calm - N/A   Overcast
8:45 AM 80.6 °F 85.4 °F 73.4 °F 79% 29.94 in 7.0 mi Calm Calm - N/A   Overcast
8:50 AM 80 °F - 74 °F 77% 29.95 in 12 mi NNW 2.2 mph - -   Overcast
9:50 AM 82.4 °F 89.5 °F 75.2 °F 79% 29.96 in 7.0 mi Calm Calm - N/A   Overcast
10:45 AM 84.2 °F 92.3 °F 75.2 °F 74% 29.95 in 8.0 mi SSE 5.8 mph - N/A   Mostly Cloudy
11:45 AM 84.2 °F 92.3 °F 75.2 °F 74% 29.90 in 8.0 mi Calm Calm - N/A   Mostly Cloudy
11:50 AM 87 °F - 74 °F 58% 29.92 in 12 mi East 4.5 mph - -   Scattered Clouds
12:45 PM 87.8 °F 102.5 °F 78.8 °F 75% 29.90 in 8.0 mi South 5.8 mph - N/A   Mostly Cloudy
1:48 PM 86.0 °F 95.1 °F 75.2 °F 70% 29.88 in 8.0 mi South 4.6 mph - N/A   Overcast
2:49 PM 86.0 °F 95.1 °F 75.2 °F 70% 29.89 in 8.0 mi Calm Calm - N/A   Overcast
2:50 PM 86 °F - 73 °F 56% 29.85 in 12 mi SW 6.7 mph - -   Overcast
3:48 PM 84.2 °F 92.3 °F 75.2 °F 74% 29.85 in 8.0 mi Calm Calm - N/A   Overcast
4:48 PM 84.2 °F 92.3 °F 75.2 °F 74% 29.86 in 8.0 mi Calm Calm - N/A   Overcast
5:42 PM 84.2 °F 92.3 °F 75.2 °F 74% 29.88 in 8.0 mi Calm Calm - N/A   Overcast
5:45 PM 83 °F - 76 °F 73% 29.88 in 12 mi NNW 2.2 mph - -   Overcast
6:42 PM 82.4 °F 89.5 °F 75.2 °F 79% 29.87 in 8.0 mi Calm Calm - N/A   Overcast
7:42 PM 80.6 °F 86.2 °F 75.2 °F 84% 29.88 in 8.0 mi Calm Calm - N/A   Overcast
8:45 PM 80.6 °F 86.2 °F 75.2 °F 84% 29.90 in 8.0 mi Calm Calm - N/A   Overcast
8:47 PM 80 °F - 75 °F 82% 29.90 in 6 mi SSE 2.2 mph - -   Partly Cloudy
9:42 PM 80.6 °F 85.4 °F 73.4 °F 79% 29.89 in 8.0 mi Calm Calm - N/A   Overcast
10:45 PM 78.8 °F - 73.4 °F 83% 29.90 in 8.0 mi Calm Calm - N/A   Overcast
11:45 PM 78 °F - 75 °F 88% 29.90 in 6 mi NE 2.2 mph - -   Partly Cloudy
11:45 PM 78.8 °F - 73.4 °F 83% 29.92 in 8.0 mi Calm Calm - N/A   Overcast